FW2254 Weather Reports


Display with metric or nautical units.
time (UTC)temp
F
wind
direction
speed
MPH
gust
MPH
rain 1hr
in
rain 24hr
in
rain mn
in
humidity
%
barometer
mb
20220116183142 43 306 2.0 5.0 0.00 0.00 0.00 65 1017.6
20220116181636 43 279 2.0 9.0 0.00 0.00 0.00 66 1017.8
20220116180046 42 341 2.0 8.0 0.00 0.00 0.00 68 1018.2
20220116173222 41 323 1.0 4.0 0.00 0.00 0.00 69 1018.4
20220116171627 41 304 2.0 4.0 0.00 0.00 0.00 69 1018.6
20220116170129 39 242 2.0 6.0 0.00 0.00 0.00 73 1018.6
20220116163054 38 325 1.0 5.0 0.00 0.00 0.00 78 1018.8
20220116161640 34 223 3.0 9.0 0.00 0.00 0.00 79 1018.8
20220116160056 33 303 3.0 7.0 0.00 0.00 0.00 81 1018.9
20220116153128 32 279 2.0 7.0 0.00 0.00 0.00 84 1018.9
20220116151633 31 311 2.0 9.0 0.00 0.00 0.00 84 1018.9
20220116150116 30 307 2.0 8.0 0.00 0.00 0.00 86 1018.7
20220116143054 29 298 1.0 6.0 0.00 0.00 0.00 86 1018.8
20220116141600 29 267 1.0 6.0 0.00 0.00 0.00 86 1018.6
20220116140121 28 277 2.0 3.0 0.00 0.00 0.00 87 1018.6
20220116133028 28 278 1.0 5.0 0.00 0.00 0.00 86 1018.7
20220116131535 28 277 1.0 4.0 0.00 0.00 0.00 86 1018.7
20220116130021 27 281 2.0 5.0 0.00 0.00 0.00 86 1018.4
20220116123033 27 269 1.0 4.0 0.00 0.00 0.00 86 1018.3
20220116121601 27 307 1.0 5.0 0.00 0.00 0.00 86 1018.1
20220116120054 27 294 1.0 4.0 0.00 0.00 0.00 85 1018.1
20220116113053 27 296 1.0 3.0 0.00 0.00 0.00 84 1017.6
20220116111552 27 319 1.0 4.0 0.00 0.00 0.00 84 1017.7
20220116110113 28 320 1.0 5.0 0.00 0.00 0.00 84 1017.9
20220116103025 28 298 2.0 9.0 0.00 0.00 0.00 83 1017.7
20220116101547 28 283 1.0 4.0 0.00 0.00 0.00 82 1017.6
20220116100042 28 261 2.0 6.0 0.00 0.00 0.00 82 1017.9
20220116093019 29 334 2.0 10.0 0.00 0.00 0.00 82 1018.2
20220116091517 29 325 3.0 10.0 0.00 0.00 0.00 81 1018.3
20220116090030 29 326 3.0 5.0 0.00 0.00 0.00 81 1018.3
20220116083015 30 323 4.0 8.0 0.00 0.00 0.00 80 1018.8
20220116081508 30 288 3.0 11.0 0.00 0.00 0.00 80 1018.9
20220116080003 30 294 1.0 9.0 0.00 0.00 0.00 80 1018.6
20220116073007 31 246 2.0 9.0 0.00 0.00 0.00 79 1018.2
20220116071515 31 321 3.0 13.0 0.00 0.00 0.00 78 1017.2
20220116070014 31 302 3.0 11.0 0.00 0.00 0.00 78 1017.9
20220116063110 31 344 3.0 9.0 0.00 0.00 0.00 78 1018.5
20220116061537 31 11 3.0 15.0 0.00 0.00 0.00 78 1018.7
20220116060025 31 288 1.0 6.0 0.00 0.00 0.00 78 1018.6
20220116053056 31 280 3.0 8.0 0.00 0.00 0.00 77 1018.9
20220116051708 31 302 3.0 14.0 0.00 0.00 0.00 77 1019.0
20220116050041 31 278 4.0 12.0 0.00 0.00 0.00 77 1018.8
20220116043048 30 326 3.0 14.0 0.00 0.00 0.00 77 1018.9
20220116041535 30 277 2.0 12.0 0.00 0.00 0.00 78 1018.8
20220116040023 30 278 3.0 12.0 0.00 0.00 0.00 78 1018.6
20220116033144 29 315 2.0 14.0 0.00 0.00 0.00 80 1018.6
20220116031543 29 282 3.0 12.0 0.00 0.00 0.00 82 1018.7
20220116030055 28 279 3.0 12.0 0.00 0.00 0.00 85 1018.9
20220116023015 28 282 2.0 6.0 0.00 0.00 0.00 85 1019.3
20220116021505 29 285 3.0 6.0 0.00 0.00 0.00 82 1018.9
20220116020004 29 277 2.0 9.0 0.00 0.00 0.00 78 1018.7
20220116013204 29 323 4.0 14.0 0.00 0.00 0.00 75 1018.9
20220116011813 29 325 3.0 15.0 0.00 0.00 0.00 73 1019.0
20220116010139 30 304 3.0 16.0 0.00 0.00 0.00 72 1018.6
20220116003129 30 281 6.0 13.0 0.00 0.00 0.00 69 1018.5
20220116001557 30 296 4.0 9.0 0.00 0.00 0.00 69 1018.4
20220116000120 30 300 4.0 10.0 0.00 0.00 0.00 68 1018.1
20220115233234 31 295 4.0 8.0 0.00 0.00 0.00 67 1017.9
20220115231616 31 296 3.0 12.0 0.00 0.00 0.00 66 1017.8
20220115230111 31 315 3.0 14.0 0.00 0.00 0.00 65 1018.0
20220115223101 32 299 4.0 12.0 0.00 0.00 0.00 65 1017.5
20220115221537 32 302 4.0 10.0 0.00 0.00 0.00 64 1017.2
20220115220032 32 284 5.0 14.0 0.00 0.00 0.00 63 1017.2
20220115213050 33 271 3.0 11.0 0.00 0.00 0.00 63 1016.9
20220115210041 35 277 2.0 14.0 0.00 0.00 0.00 64 1016.7
20220115203006 35 279 3.0 9.0 0.00 0.00 0.00 64 1016.3
20220115201518 35 355 5.0 22.0 0.00 0.00 0.00 63 1016.4
20220115200020 35 280 5.0 14.0 0.00 0.00 0.00 62 1016.6
20220115191646 37 278 3.0 9.0 0.00 0.00 0.00 62 1016.6
20220115190246 37 310 3.0 12.0 0.00 0.00 0.00 62 1016.7